Location: Unspecified
(49.9820°N, 20.4363°E)
Time: 22:20:08
(UTC+02:00)

Vanguard 2 - Visible Passes

Search period start: 15 May 2026 00:00
Search period end: 25 May 2026 00:00
Orbit: 553 x 2895 km, 32.9° (Epoch: 15 May)

Date Brightness Start Highest point End Pass type
(mag) Time Alt. Az. Time Alt. Az. Time Alt. Az.
15 May 11.3 00:15:59 15° SE 00:16:58 15° SE 00:25:15 10° ESE visible
15 May 10.8 02:16:49 21° SSW 02:25:42 32° SSE 02:38:30 10° ESE visible
16 May 11.1 00:25:56 19° SSE 00:27:55 19° SE 00:38:19 10° ESE visible
16 May 10.8 02:26:46 20° SSW 02:36:55 35° SSE 02:50:14 10° ESE visible
17 May 10.9 00:35:47 22° SSE 00:38:54 23° SE 00:50:46 10° ESE visible
17 May 10.7 02:36:36 18° SW 02:48:10 38° SSE 03:01:51 10° ESE visible
18 May 10.8 00:45:32 25° S 00:49:56 27° SSE 01:02:52 10° E visible
18 May 10.6 02:46:20 15° SW 02:59:25 40° S 03:13:24 10° ESE visible
18 May 11.3 22:54:21 13° SE 22:54:21 13° SE 22:59:14 10° ESE visible
19 May 10.7 00:55:09 25° S 01:01:00 31° SSE 01:14:45 10° E visible
19 May 10.6 02:55:56 12° SW 03:10:41 42° S 03:24:52 10° ESE visible
19 May 11.0 23:03:48 17° SE 23:03:48 17° SE 23:12:51 10° ESE visible
20 May 10.7 01:04:34 24° SSW 01:12:07 34° SSE 01:26:29 10° ESE visible
20 May 10.6 03:06:28 10° WSW 03:21:58 42° S 03:36:15 10° ESE visible
20 May 10.8 23:12:59 20° SSE 23:14:36 21° SE 23:25:32 10° E visible
21 May 10.6 01:13:43 21° SSW 01:23:17 37° SSE 01:38:06 10° ESE visible
21 May 10.6 03:17:46 10° WSW 03:33:14 42° S 03:47:35 10° ESE visible
21 May 10.6 23:21:38 22° SSE 23:25:31 24° SE 23:37:45 10° E visible
22 May 10.5 01:22:19 15° SW 01:34:28 40° SSE 01:49:38 10° ESE visible
22 May 10.6 03:29:09 10° WSW 03:44:29 41° S 03:58:49 10° SE visible
22 May 10.6 23:28:31 18° S 23:36:30 28° SSE 23:49:42 10° E visible
23 May 10.5 01:31:33 10° SW 01:45:41 41° S 02:01:05 10° ESE visible
23 May 10.6 03:40:35 10° WSW 03:55:43 40° SSW 04:09:57 10° SE visible
23 May 10.9 21:35:05 10° SSE 21:40:03 13° SE 21:45:35 10° ESE visible
23 May 10.5 23:36:04 10° SSW 23:47:32 31° SSE 00:01:28 10° E visible
24 May 10.5 01:42:46 10° WSW 01:56:56 42° S 02:12:28 10° ESE visible
24 May 10.7 03:52:07 10° WSW 04:06:55 38° SSW 04:20:57 10° SE visible
24 May 10.7 21:44:00 10° SSE 21:50:51 16° SE 21:58:58 10° ESE visible
